.
WxDataArchive / Data Records for 2010-05-18
2010-05-17 May 2010 2010-05-19

Data Records for Tuesday, 18 May 2010

Time	Temp	Chill	HIndex	Humid	Dewpt	 Wind 	HiWind	WindDir	Rain 	Barom 
-----	----	-----	------	-----	-----	------	------	-------	-----	----- 
00:00	53.6	53.6	53.6	94	51.9	0	2	135	0.00	29.889 
00:05	53.6	53.6	53.6	94	51.9	0	2	135	0.00	29.889 
00:10	53.6	53.6	53.6	94	51.9	1	3	135	0.00	29.889 
00:15	53.5	53.5	53.5	94	51.8	1	5	45	0.00	29.886 
00:20	53.5	53.5	53.5	94	51.8	1	5	135	0.00	29.886 
00:25	53.5	53.5	53.5	94	51.8	1	5	45	0.00	29.886 
00:30	53.3	53.3	53.3	95	51.9	0	3	45	0.00	29.884 
00:35	53.3	53.3	53.3	95	51.9	1	5	158	0.00	29.884 
00:40	53.3	53.3	53.3	95	51.9	0	3	90	0.00	29.884 
00:45	53.3	53.3	53.3	95	51.9	0	4	112	0.00	29.882 
00:50	53.2	53.2	53.2	95	51.8	0	2	180	0.00	29.882 
00:55	53.2	53.2	53.2	95	51.8	1	4	68	0.00	29.882 
01:00	53.2	53.2	53.2	95	51.8	0	2	90	0.00	29.879 
01:05	53.1	53.1	53.1	95	51.7	1	4	90	0.00	29.879 
01:10	53.1	53.1	53.1	95	51.7	1	4	112	0.00	29.879 
01:15	53.1	53.1	53.1	95	51.7	0	2	112	0.00	29.873 
01:20	53.1	53.1	53.1	95	51.7	0	1	112	0.01	29.873 
01:25	53.1	53.1	53.1	95	51.7	0	1	112	0.00	29.873 
01:30	52.9	52.9	52.9	95	51.5	0	1	112	0.00	29.869 
01:35	52.9	52.9	52.9	95	51.5	0	1	112	0.00	29.869 
01:40	52.9	52.9	52.9	95	51.5	0	3	135	0.00	29.869 
01:45	52.9	52.9	52.9	95	51.5	0	1	135	0.00	29.865 
01:50	52.9	52.9	52.9	95	51.5	0	1	135	0.00	29.865 
01:55	52.8	52.8	52.8	95	51.4	0	2	135	0.00	29.865 
02:00	52.8	52.8	52.8	95	51.4	0	1	135	0.00	29.860 
02:05	52.8	52.8	52.8	95	51.4	0	3	135	0.00	29.860 
02:10	52.8	52.8	52.8	95	51.4	0	1	135	0.00	29.860 
02:15	52.8	52.8	52.8	95	51.4	0	2	135	0.00	29.858 
02:20	52.6	52.6	52.6	95	51.2	0	2	135	0.00	29.858 
02:25	52.6	52.6	52.6	95	51.2	0	1	135	0.00	29.858 
02:30	52.6	52.6	52.6	95	51.2	0	1	135	0.00	29.856 
02:35	52.6	52.6	52.6	95	51.2	0	1	135	0.00	29.856 
02:40	52.6	52.6	52.6	95	51.2	0	1	135	0.00	29.856 
02:45	52.6	52.6	52.6	95	51.2	0	0	---	0.01	29.855 
02:50	52.6	52.6	52.6	95	51.2	0	2	135	0.00	29.855 
02:55	52.5	52.5	52.5	95	51.1	0	1	135	0.00	29.855 
03:00	52.5	52.5	52.5	95	51.1	0	1	135	0.00	29.853 
03:05	52.5	52.5	52.5	95	51.1	0	2	270	0.00	29.853 
03:10	52.3	52.3	52.3	96	51.2	0	1	270	0.00	29.853 
03:15	52.3	52.3	52.3	96	51.2	0	3	135	0.00	29.855 
03:20	52.3	52.3	52.3	96	51.2	0	1	135	0.01	29.855 
03:25	52.3	52.3	52.3	96	51.2	0	1	135	0.00	29.855 
03:30	52.3	52.3	52.3	96	51.2	0	2	270	0.00	29.850 
03:35	52.3	52.3	52.3	96	51.2	0	1	270	0.00	29.850 
03:40	52.3	52.3	52.3	96	51.2	0	1	270	0.01	29.850 
03:45	52.3	52.3	52.3	96	51.2	0	1	270	0.00	29.845 
03:50	52.2	52.2	52.2	96	51.1	0	1	270	0.00	29.845 
03:55	52.2	52.2	52.2	96	51.1	0	1	270	0.00	29.845 
04:00	52.2	52.2	52.2	96	51.1	0	1	270	0.00	29.846 
04:05	52.2	52.2	52.2	96	51.1	0	2	270	0.00	29.846 
04:10	52.2	52.2	52.2	96	51.1	0	1	270	0.00	29.846 
04:15	52.0	52.0	52.0	96	50.9	0	1	270	0.00	29.843 
04:20	52.0	52.0	52.0	96	50.9	0	2	270	0.01	29.843 
04:25	52.0	52.0	52.0	96	50.9	0	2	270	0.00	29.843 
04:30	52.0	52.0	52.0	96	50.9	0	2	270	0.00	29.842 
04:35	52.0	52.0	52.0	96	50.9	0	1	270	0.00	29.842 
04:40	51.9	51.9	51.9	96	50.8	0	0	---	0.00	29.842 
04:45	51.9	51.9	51.9	96	50.8	0	3	270	0.00	29.842 
04:50	51.9	51.9	51.9	96	50.8	0	3	270	0.00	29.842 
04:55	51.9	51.9	51.9	96	50.8	0	2	270	0.00	29.842 
05:00	51.7	51.7	51.7	96	50.6	0	1	270	0.00	29.841 
05:05	51.7	51.7	51.7	96	50.6	0	2	270	0.00	29.841 
05:10	51.7	51.7	51.7	96	50.6	0	1	270	0.00	29.841 
05:15	51.7	51.7	51.7	96	50.6	0	1	270	0.00	29.841 
05:20	51.7	51.7	51.7	96	50.6	0	1	270	0.01	29.841 
05:25	51.7	51.7	51.7	96	50.6	0	1	270	0.00	29.841 
05:30	51.7	51.7	51.7	96	50.6	0	1	270	0.00	29.840 
05:35	51.7	51.7	51.7	96	50.6	0	2	270	0.00	29.840 
05:40	51.6	51.6	51.6	96	50.5	0	1	270	0.00	29.840 
05:45	51.6	51.6	51.6	96	50.5	0	1	270	0.00	29.841 
05:50	51.6	51.6	51.6	96	50.5	0	2	270	0.00	29.841 
05:55	51.6	51.6	51.6	96	50.5	0	1	270	0.00	29.841 
06:00	51.6	51.6	51.6	96	50.5	0	1	270	0.00	29.840 
06:05	51.6	51.6	51.6	96	50.5	0	2	270	0.00	29.840 
06:10	51.4	51.4	51.4	96	50.3	0	2	270	0.00	29.840 
06:15	51.4	51.4	51.4	96	50.3	0	1	270	0.00	29.842 
06:20	51.4	51.4	51.4	96	50.3	0	1	270	0.00	29.842 
06:25	51.4	51.4	51.4	96	50.3	0	2	270	0.00	29.842 
06:30	51.3	51.3	51.3	96	50.2	0	1	270	0.00	29.841 
06:35	51.3	51.3	51.3	96	50.2	0	4	112	0.00	29.841 
06:40	51.1	51.1	51.1	96	50.0	0	3	135	0.00	29.841 
06:45	51.1	51.1	51.1	96	50.0	0	1	135	0.00	29.843 
06:50	51.1	51.1	51.1	96	50.0	0	1	135	0.00	29.843 
06:55	51.1	51.1	51.1	96	50.0	0	2	135	0.00	29.843 
07:00	51.1	51.1	51.1	96	50.0	0	2	135	0.00	29.844 
07:05	51.1	51.1	51.1	96	50.0	0	3	135	0.00	29.844 
07:10	51.1	51.1	51.1	96	50.0	0	1	135	0.00	29.844 
07:15	51.1	51.1	51.1	96	50.0	0	1	135	0.00	29.844 
07:20	51.1	51.1	51.1	96	50.0	0	2	248	0.00	29.844 
07:25	51.1	51.1	51.1	96	50.0	0	1	248	0.00	29.844 
07:30	51.1	51.1	51.1	96	50.0	0	2	248	0.00	29.846 
07:35	51.1	51.1	51.1	96	50.0	0	1	248	0.00	29.846 
07:40	51.0	51.0	51.0	96	49.9	0	1	248	0.00	29.846 
07:45	51.0	51.0	51.0	96	49.9	0	3	248	0.00	29.846 
07:50	51.0	51.0	51.0	96	49.9	0	2	248	0.01	29.846 
07:55	51.0	51.0	51.0	96	49.9	0	2	248	0.00	29.846 
08:00	51.0	51.0	51.0	96	49.9	0	4	135	0.00	29.845 
08:05	51.0	51.0	51.0	96	49.9	0	2	135	0.00	29.845 
08:10	51.1	51.1	51.1	96	50.0	0	2	135	0.00	29.845 
08:15	51.1	51.1	51.1	96	50.0	0	1	112	0.00	29.845 
08:20	51.1	51.1	51.1	96	50.0	0	1	112	0.00	29.845 
08:25	51.1	51.1	51.1	96	50.0	0	1	112	0.00	29.845 
08:30	51.1	51.1	51.1	96	50.0	0	1	112	0.00	29.847 
08:35	51.1	51.1	51.1	96	50.0	0	1	112	0.00	29.847 
08:40	51.3	51.3	51.3	96	50.2	0	1	112	0.00	29.847 
08:45	51.3	51.3	51.3	96	50.2	0	1	315	0.00	29.849 
08:50	51.3	51.3	51.3	96	50.2	0	1	315	0.00	29.849 
08:55	51.3	51.3	51.3	96	50.2	0	1	315	0.00	29.849 
09:00	51.3	51.3	51.3	96	50.2	0	1	315	0.00	29.848 
09:05	51.4	51.4	51.4	96	50.3	0	3	90	0.00	29.848 
09:10	51.6	51.6	51.6	96	50.5	0	1	90	0.00	29.848 
09:15	51.7	51.7	51.7	96	50.6	0	1	90	0.00	29.845 
09:20	51.7	51.7	51.7	96	50.6	0	2	90	0.00	29.845 
09:25	51.6	51.6	51.6	96	50.5	0	3	90	0.00	29.845 
09:30	51.7	51.7	51.7	96	50.6	0	1	90	0.00	29.853 
09:35	51.6	51.6	51.6	96	50.5	0	1	90	0.00	29.853 
09:40	51.7	51.7	51.7	96	50.6	0	1	90	0.00	29.853 
09:45	51.7	51.7	51.7	96	50.6	0	1	90	0.00	29.854 
09:50	51.9	51.9	51.9	96	50.8	0	0	---	0.00	29.854 
09:55	52.0	52.0	52.0	96	50.9	0	0	---	0.00	29.854 
10:00	52.2	52.2	52.2	96	51.1	0	2	90	0.00	29.856 
10:05	52.2	52.2	52.2	96	51.1	0	1	90	0.00	29.856 
10:10	52.2	52.2	52.2	96	51.1	0	1	90	0.00	29.856 
10:15	52.2	52.2	52.2	96	51.1	0	2	90	0.00	29.858 
10:20	52.2	52.2	52.2	96	51.1	0	0	---	0.00	29.858 
10:25	52.3	52.3	52.3	96	51.2	0	0	---	0.00	29.858 
10:30	52.3	52.3	52.3	96	51.2	1	3	112	0.00	29.859 
10:35	52.5	52.5	52.5	96	51.4	0	2	112	0.00	29.859 
10:40	52.6	52.6	52.6	96	51.5	0	2	112	0.00	29.859 
10:45	52.8	52.8	52.8	97	52.0	0	2	338	0.00	29.859 
10:50	52.9	52.9	52.9	97	52.1	0	3	112	0.00	29.859 
10:55	53.1	53.1	53.1	97	52.3	0	3	112	0.00	29.859 
11:00	53.1	53.1	53.1	97	52.3	1	5	112	0.00	29.858 
11:05	53.3	53.3	53.3	97	52.5	1	5	112	0.00	29.858 
11:10	53.6	53.6	53.6	97	52.8	1	3	112	0.00	29.858 
11:15	53.8	53.8	53.8	97	53.0	1	4	112	0.00	29.857 
11:20	53.8	53.8	53.8	97	53.0	1	4	112	0.00	29.857 
11:25	54.1	54.1	54.1	97	53.3	1	3	112	0.00	29.857 
11:30	54.2	54.2	54.2	97	53.4	0	2	112	0.00	29.859 
11:35	54.5	54.5	54.5	97	53.7	0	2	112	0.00	29.859 
11:40	54.5	54.5	54.5	97	53.7	0	1	112	0.00	29.859 
11:45	54.5	54.5	54.5	97	53.7	1	4	112	0.00	29.864 
11:50	54.5	54.5	54.5	96	53.4	1	4	112	0.00	29.864 
11:55	54.4	54.4	54.4	96	53.3	1	4	90	0.00	29.864 
12:00	54.4	54.4	54.4	96	53.3	2	5	90	0.00	29.865 
12:05	54.5	54.5	54.5	96	53.4	1	4	112	0.00	29.865 
12:10	54.5	54.5	54.5	96	53.4	1	4	112	0.00	29.865 
12:15	54.5	54.5	54.5	96	53.4	2	5	112	0.00	29.867 
12:20	54.7	54.7	54.7	96	53.6	1	4	68	0.00	29.867 
12:25	55.0	55.0	55.0	96	53.9	1	3	90	0.00	29.867 
12:30	55.1	55.1	55.1	96	54.0	1	5	90	0.00	29.869 
12:35	55.0	55.0	55.0	96	53.9	2	5	112	0.00	29.869 
12:40	55.0	55.0	55.0	96	53.9	1	7	112	0.00	29.869 
12:45	55.0	55.0	55.0	96	53.9	2	6	90	0.00	29.871 
12:50	55.0	55.0	55.0	96	53.9	1	5	90	0.00	29.871 
12:55	55.0	55.0	55.0	96	53.9	3	6	135	0.00	29.871 
13:00	55.0	55.0	55.0	96	53.9	1	5	112	0.00	29.876 
13:05	55.1	55.1	55.1	96	54.0	1	4	112	0.00	29.876 
13:10	55.3	55.3	55.3	96	54.2	1	5	112	0.00	29.876 
13:15	55.1	55.1	55.1	96	54.0	1	3	90	0.00	29.879 
13:20	55.1	55.1	55.1	96	54.0	1	6	68	0.00	29.879 
13:25	55.1	55.1	55.1	96	54.0	2	6	112	0.00	29.879 
13:30	55.3	55.3	55.3	96	54.2	2	6	135	0.00	29.883 
13:35	55.1	55.1	55.1	96	54.0	2	5	68	0.00	29.883 
13:40	55.1	55.1	55.1	96	54.0	1	2	90	0.00	29.883 
13:45	55.0	55.0	55.0	96	53.9	1	3	45	0.00	29.886 
13:50	54.8	54.8	54.8	96	53.7	2	9	45	0.00	29.886 
13:55	54.7	54.7	54.7	96	53.6	1	6	112	0.00	29.886 
14:00	54.7	54.7	54.7	96	53.6	2	5	112	0.00	29.888 
14:05	54.8	54.8	54.8	96	53.7	1	5	135	0.00	29.888 
14:10	54.8	54.8	54.8	96	53.7	1	4	68	0.00	29.888 
14:15	54.8	54.8	54.8	96	53.7	1	4	135	0.00	29.892 
14:20	54.7	54.7	54.7	96	53.6	2	9	112	0.00	29.892 
14:25	54.7	54.7	54.7	96	53.6	1	4	90	0.00	29.892 
14:30	54.7	54.7	54.7	96	53.6	2	5	135	0.00	29.893 
14:35	54.5	54.5	54.5	96	53.4	1	5	112	0.00	29.893 
14:40	54.5	54.5	54.5	96	53.4	2	5	112	0.00	29.893 
14:45	54.5	54.5	54.5	96	53.4	1	3	112	0.00	29.899 
14:50	54.5	54.5	54.5	96	53.4	1	5	135	0.00	29.899 
14:55	54.4	54.4	54.4	96	53.3	2	6	135	0.00	29.899 
15:00	54.4	54.4	54.4	96	53.3	1	4	90	0.00	29.904 
15:05	54.5	54.5	54.5	96	53.4	1	7	90	0.00	29.904 
15:10	54.5	54.5	54.5	96	53.4	1	5	112	0.01	29.904 
15:15	54.4	54.4	54.4	96	53.3	1	4	90	0.00	29.905 
15:20	54.5	54.5	54.5	96	53.4	1	5	68	0.00	29.905 
15:25	54.5	54.5	54.5	96	53.4	1	9	135	0.00	29.905 
15:30	54.4	54.4	54.4	96	53.3	0	3	45	0.00	29.903 
15:35	54.4	54.4	54.4	95	53.0	1	6	112	0.00	29.903 
15:40	54.4	54.4	54.4	95	53.0	1	7	68	0.00	29.903 
15:45	54.2	54.2	54.2	95	52.8	1	4	68	0.00	29.906 
15:50	54.2	54.2	54.2	95	52.8	1	4	158	0.00	29.906 
15:55	54.1	54.1	54.1	95	52.7	1	3	112	0.00	29.906 
16:00	54.2	54.2	54.2	96	53.1	1	6	112	0.00	29.914 
16:05	54.1	54.1	54.1	95	52.7	2	5	90	0.00	29.914 
16:10	54.1	54.1	54.1	96	53.0	0	5	135	0.00	29.914 
16:15	54.1	54.1	54.1	96	53.0	0	3	90	0.00	29.908 
16:20	54.1	54.1	54.1	96	53.0	2	5	112	0.00	29.908 
16:25	53.9	53.9	53.9	96	52.8	1	4	68	0.00	29.908 
16:30	53.9	53.9	53.9	96	52.8	0	2	158	0.00	29.905 
16:35	53.9	53.9	53.9	95	52.5	1	7	158	0.00	29.905 
16:40	53.9	53.9	53.9	95	52.5	1	4	90	0.00	29.905 
16:45	53.9	53.9	53.9	95	52.5	1	4	112	0.00	29.906 
16:50	53.9	53.9	53.9	96	52.8	1	3	135	0.00	29.906 
16:55	53.9	53.9	53.9	96	52.8	0	3	112	0.00	29.906 
17:00	53.9	53.9	53.9	96	52.8	0	3	112	0.00	29.905 
17:05	53.9	53.9	53.9	96	52.8	0	2	45	0.00	29.905 
17:10	53.9	53.9	53.9	96	52.8	1	4	112	0.00	29.905 
17:15	53.9	53.9	53.9	96	52.8	1	4	90	0.01	29.907 
17:20	53.9	53.9	53.9	96	52.8	1	4	90	0.00	29.907 
17:25	53.9	53.9	53.9	96	52.8	2	9	112	0.00	29.907 
17:30	53.8	53.8	53.8	96	52.7	1	5	112	0.00	29.909 
17:35	53.8	53.8	53.8	96	52.7	1	4	112	0.00	29.909 
17:40	53.8	53.8	53.8	96	52.7	2	7	90	0.00	29.909 
17:45	53.5	53.5	53.5	95	52.1	1	4	90	0.00	29.913 
17:50	53.3	53.3	53.3	95	51.9	2	8	112	0.00	29.913 
17:55	53.3	53.3	53.3	95	51.9	1	4	112	0.00	29.913 
18:00	53.3	53.3	53.3	95	51.9	1	5	135	0.00	29.919 
18:05	53.5	53.5	53.5	95	52.1	0	2	68	0.00	29.919 
18:10	53.5	53.5	53.5	95	52.1	0	3	68	0.00	29.919 
18:15	53.5	53.5	53.5	95	52.1	0	2	68	0.00	29.920 
18:20	53.5	53.5	53.5	95	52.1	1	7	68	0.00	29.920 
18:25	53.5	53.5	53.5	95	52.1	0	3	68	0.00	29.920 
18:30	53.3	53.3	53.3	95	51.9	0	3	68	0.00	29.922 
18:35	53.3	53.3	53.3	95	51.9	1	5	68	0.00	29.922 
18:40	53.3	53.3	53.3	95	51.9	1	3	45	0.00	29.922 
18:45	53.3	53.3	53.3	95	51.9	0	3	45	0.00	29.923 
18:50	53.2	53.2	53.2	95	51.8	1	4	112	0.00	29.923 
18:55	53.1	53.1	53.1	95	51.7	1	5	68	0.00	29.923 
19:00	53.1	53.1	53.1	95	51.7	1	4	135	0.00	29.924 
19:05	53.1	53.1	53.1	95	51.7	1	4	112	0.00	29.924 
19:10	53.1	53.1	53.1	95	51.7	1	5	90	0.00	29.924 
19:15	53.1	53.1	53.1	95	51.7	1	4	90	0.00	29.928 
19:20	53.1	53.1	53.1	95	51.7	1	3	90	0.00	29.928 
19:25	53.1	53.1	53.1	95	51.7	0	3	90	0.00	29.928 
19:30	53.1	53.1	53.1	94	51.4	1	5	68	0.00	29.925 
19:35	53.1	53.1	53.1	94	51.4	1	3	90	0.00	29.925 
19:40	53.1	53.1	53.1	94	51.4	0	3	90	0.00	29.925 
19:45	53.1	53.1	53.1	94	51.4	1	3	90	0.00	29.924 
19:50	53.1	53.1	53.1	94	51.4	1	4	90	0.00	29.924 
19:55	53.1	53.1	53.1	94	51.4	2	5	90	0.00	29.924 
20:00	53.2	53.2	53.2	94	51.5	0	1	90	0.00	29.926 
20:05	53.2	53.2	53.2	94	51.5	1	5	90	0.00	29.926 
20:10	53.2	53.2	53.2	94	51.5	0	2	90	0.00	29.926 
20:15	53.2	53.2	53.2	93	51.2	2	6	90	0.00	29.928 
20:20	53.2	53.2	53.2	93	51.2	1	4	90	0.00	29.928 
20:25	53.2	53.2	53.2	93	51.2	0	4	90	0.00	29.928 
20:30	53.2	53.2	53.2	93	51.2	1	5	112	0.00	29.931 
20:35	53.2	53.2	53.2	93	51.2	0	3	112	0.00	29.931 
20:40	53.2	53.2	53.2	93	51.2	1	6	112	0.00	29.931 
20:45	53.2	53.2	53.2	93	51.2	0	2	112	0.00	29.930 
20:50	53.2	53.2	53.2	93	51.2	0	1	112	0.00	29.930 
20:55	53.2	53.2	53.2	92	50.9	0	2	112	0.00	29.930 
21:00	53.2	53.2	53.2	92	50.9	0	0	---	0.00	29.933 
21:05	53.1	53.1	53.1	92	50.8	0	1	112	0.00	29.933 
21:10	53.1	53.1	53.1	92	50.8	0	0	---	0.00	29.933 
21:15	53.1	53.1	53.1	92	50.8	0	0	---	0.00	29.935 
21:20	53.1	53.1	53.1	92	50.8	0	1	112	0.00	29.935 
21:25	53.1	53.1	53.1	92	50.8	0	0	---	0.00	29.935 
21:30	53.1	53.1	53.1	92	50.8	0	0	---	0.00	29.936 
21:35	53.1	53.1	53.1	92	50.8	0	0	---	0.00	29.936 
21:40	53.1	53.1	53.1	92	50.8	0	0	---	0.00	29.936 
21:45	53.1	53.1	53.1	93	51.1	0	0	---	0.00	29.938 
21:50	53.1	53.1	53.1	93	51.1	0	1	112	0.00	29.938 
21:55	53.1	53.1	53.1	93	51.1	0	2	112	0.00	29.938 
22:00	53.1	53.1	53.1	93	51.1	0	0	---	0.00	29.940 
22:05	53.1	53.1	53.1	93	51.1	0	2	112	0.00	29.940 
22:10	53.1	53.1	53.1	92	50.8	0	2	112	0.00	29.940 
22:15	53.2	53.2	53.2	92	50.9	0	2	112	0.00	29.939 
22:20	53.2	53.2	53.2	92	50.9	0	2	112	0.00	29.939 
22:25	53.2	53.2	53.2	92	50.9	0	2	112	0.00	29.939 
22:30	53.2	53.2	53.2	92	50.9	0	0	---	0.00	29.941 
22:35	53.1	53.1	53.1	92	50.8	0	0	---	0.00	29.941 
22:40	53.1	53.1	53.1	92	50.8	0	1	112	0.00	29.941 
22:45	53.1	53.1	53.1	92	50.8	0	1	112	0.00	29.945 
22:50	52.9	52.9	52.9	92	50.6	0	1	112	0.00	29.945 
22:55	52.9	52.9	52.9	92	50.6	0	0	---	0.00	29.945 
23:00	52.9	52.9	52.9	92	50.6	0	2	112	0.00	29.949 
23:05	52.9	52.9	52.9	91	50.3	0	2	112	0.00	29.949 
23:10	52.8	52.8	52.8	91	50.2	1	6	112	0.00	29.949 
23:15	52.8	52.8	52.8	89	49.6	1	6	68	0.00	29.949 
23:20	52.9	52.9	52.9	88	49.4	1	3	68	0.00	29.949 
23:25	52.9	52.9	52.9	87	49.1	1	4	90	0.00	29.949 
23:30	52.9	52.9	52.9	86	48.8	1	6	90	0.00	29.944 
23:35	53.1	53.1	53.1	86	49.0	0	3	112	0.00	29.944 
23:40	53.1	53.1	53.1	86	49.0	0	3	68	0.00	29.944 
23:45	53.1	53.1	53.1	86	49.0	0	2	68	0.00	29.943 
23:50	53.1	53.1	53.1	86	49.0	0	3	68	0.00	29.943 
23:55	52.9	52.9	52.9	86	48.8	1	3	68	0.00	29.943 

CoCoRaHS
IN-AL-39
A2 Web Hosting
Creative Commons License
GoDaddy
search engine by freefind advanced

loaded 2018-11-22 06:15:40 • last modified 2010-11-18 10:43:29
Privacy PolicyDisclaimer
• wx.awcolley.com is powered by PmWiki v.2002016 •
• all content (unless otherwise noted) © 2018 A W Colley